Regional Weather Roundup
Issued by NWS Charleston, WV

Home | Current Version | Previous Version | Text Only | Print | Product List | Glossary On
Versions: 1 2 3 4 5 6 7 8 9 10 11 12 13 14 15 16 17 18 19 20 21 22 23 24 25 26 27 28 29 30 31 32 33 34 35 36 37 38 39 40 41 42 43 44 45 46 47 48 49 50
000
ASUS41 KRLX 011410
RWRRLX
West Virginia Regional Weather Roundup
National Weather Service Charleston WV
900 AM EST SUN FEB 01 2015

Note: "fair" indicates few or no clouds below 12,000 feet with no
significant weather and/or obstructions to visibility.

WVZ003-011500-
Northern Panhandle of West Virginia

CITY           SKY/WX    TMP DP  RH WIND       PRES   REMARKS
WHEELING       LGT SNOW  28  26  92 S7        30.15S VSB 1
$$

WVZ009-011500-
Northwest West Virginia

CITY           SKY/WX    TMP DP  RH WIND       PRES   REMARKS
PARKERSBURG    DRIZZLE   32  28  85 E3        30.19F
$$

WVZ006-011500-
Western West Virginia

CITY           SKY/WX    TMP DP  RH WIND       PRES   REMARKS
HUNTINGTON     CLOUDY    35  19  52 SE7       30.10F
$$

WVZ015-011500-
West Central West Virginia

CITY           SKY/WX    TMP DP  RH WIND       PRES   REMARKS
CHARLESTON     CLOUDY    33  23  66 CALM      30.14F
$$

WVZ022-031-011500-
North Central West Virginia

CITY           SKY/WX    TMP DP  RH WIND       PRES   REMARKS
CLARKSBURG     CLOUDY    30  27  88 CALM      30.17F
MORGANTOWN     CLOUDY    29  25  85 CALM      30.17S
$$

WVZ025-035-042-045-011500-
Southern West Virginia

CITY           SKY/WX    TMP DP  RH WIND       PRES   REMARKS
BECKLEY        CLOUDY    36   8  31 CALM      30.12F
LOGAN            N/A     37  14  38 CALM      30.09F
BLUEFIELD      CLOUDY    36   9  32 E6        30.11F
LEWISBURG      CLOUDY    32  16  51 CALM      30.18S
$$

WVZ047-011500-
Northern Mountains of West Virginia

CITY           SKY/WX    TMP DP  RH WIND       PRES   REMARKS
ELKINS         CLOUDY    30  24  78 CALM      30.16F
$$

WVZ052-011500-
Eastern Panhandle of West Virginia

CITY           SKY/WX    TMP DP  RH WIND       PRES   REMARKS
MARTINSBURG    CLOUDY    32  16  51 CALM      30.23S
PETERSBURG     CLOUDY    29  19  65 CALM      30.20F
$$


USA.gov is the U.S. government's official web portal to all federal, state and local government web resources and services.